N7NIP Weather Reports


time (UTC)temp
C
wind
direction
speed
KPH
gust
KPH
rain 1hr
cm
rain 24hr
cm
rain mn
cm
humidity
%
barometer
mb
20260503194455 23 121 1.6 8.0 0.00 0.00 0.00 52 1027.2
20260503193949 23 291 3.2 8.0 0.00 0.00 0.00 49 1027.4
20260503193445 23 300 4.8 11.3 0.00 0.00 0.00 50 1027.4
20260503192941 23 15 4.8 9.7 0.00 0.00 0.00 50 1027.5
20260503192438 23 350 6.4 8.0 0.00 0.00 0.00 50 1027.4
20260503191933 23 337 4.8 12.9 0.00 0.00 0.00 54 1027.6
20260503191431 22 7 6.4 17.7 0.00 0.00 0.00 52 1027.4
20260503190927 23 135 3.2 4.8 0.00 0.00 0.00 54 1027.5
20260503190425 22 255 3.2 8.0 0.00 0.00 0.00 57 1027.7
20260503185921 22 180 3.2 6.4 0.00 0.00 0.00 53 1027.7
20260503185418 22 226 8.0 9.7 0.00 0.00 0.00 52 1027.7
20260503184917 22 8 4.8 9.7 0.00 0.00 0.00 55 1027.5
20260503184414 22 256 3.2 11.3 0.00 0.00 0.00 50 1027.7
20260503183910 22 12 6.4 6.4 0.00 0.00 0.00 54 1027.9
20260503183407 22 25 8.0 8.0 0.00 0.00 0.00 53 1027.8
20260503182904 22 1 6.4 8.0 0.00 0.00 0.00 51 1027.8
20260503182403 21 28 3.2 9.7 0.00 0.00 0.00 53 1028.0
20260503181900 21 315 3.2 6.4 0.00 0.00 0.00 53 1028.0
20260503181357 21 259 3.2 6.4 0.00 0.00 0.00 53 1027.9
20260503180853 21 355 6.4 11.3 0.00 0.00 0.00 53 1028.0
20260503180351 21 256 0.0 6.4 0.00 0.00 0.00 54 1028.2
20260503175847 21 28 1.6 6.4 0.00 0.00 0.00 57 1028.2
20260503175345 21 246 0.0 11.3 0.00 0.00 0.00 51 1028.2
20260503174841 21 22 6.4 8.0 0.00 0.00 0.00 53 1028.2
20260503174340 21 93 1.6 6.4 0.00 0.00 0.00 52 1028.2
20260503173839 21 56 3.2 9.7 0.00 0.00 0.00 58 1028.1
20260503173336 20 276 3.2 6.4 0.00 0.00 0.00 60 1028.2
20260503172833 20 330 1.6 4.8 0.00 0.00 0.00 54 1028.4
20260503172331 20 32 4.8 6.4 0.00 0.00 0.00 56 1028.3
20260503171832 20 2 1.6 8.0 0.00 0.00 0.00 60 1028.4
20260503171329 20 199 6.4 8.0 0.00 0.00 0.00 59 1028.4
20260503170826 20 251 4.8 6.4 0.00 0.00 0.00 58 1028.3
20260503170322 19 55 4.8 6.4 0.00 0.00 0.00 62 1028.5
20260503150715 13 69 3.2 4.8 0.00 0.00 0.00 99 1028.7
20260503150211 12 340 3.2 6.4 0.00 0.00 0.00 99 1028.9
20260503140136 10 23 4.8 4.8 0.00 0.00 0.00 99 1028.4
20260503131105 9 84 3.2 3.2 0.00 0.00 0.00 99 1028.4
20260503130602 9 91 3.2 4.8 0.00 0.00 0.00 99 1028.3
20260503110452 10 94 3.2 4.8 0.00 0.00 0.00 98 1028.7
20260503090338 10 102 3.2 3.2 0.00 0.00 0.00 95 1028.9
20260503081306 10 78 3.2 3.2 0.00 0.00 0.00 95 1029.1
20260503080801 10 70 3.2 3.2 0.00 0.00 0.00 93 1028.8
20260503080259 10 66 3.2 3.2 0.00 0.00 0.00 93 1028.9
20260503072736 11 95 3.2 3.2 0.00 0.00 0.00 88 1029.0
20260503072232 11 109 0.0 3.2 0.00 0.00 0.00 89 1029.0
20260503071729 11 93 3.2 3.2 0.00 0.00 0.00 88 1028.8
20260503071226 11 94 1.6 3.2 0.00 0.00 0.00 88 1028.9
20260503070722 11 89 3.2 3.2 0.00 0.00 0.00 89 1028.8
20260503070220 10 71 3.2 3.2 0.00 0.00 0.00 88 1028.9
20260503060151 12 101 3.2 3.2 0.00 0.00 0.00 78 1028.9
20260503054638 12 85 3.2 3.2 0.00 0.00 0.00 76 1028.7
20260503054135 12 89 0.0 3.2 0.00 0.00 0.00 76 1028.9
20260503053633 12 94 3.2 3.2 0.00 0.00 0.00 75 1028.8
20260503053132 12 73 0.0 3.2 0.00 0.00 0.00 75 1028.7
20260503052627 12 77 3.2 3.2 0.00 0.00 0.00 74 1028.8
20260503052124 13 74 3.2 3.2 0.00 0.00 0.00 73 1028.8
20260503051619 13 83 1.6 3.2 0.00 0.00 0.00 72 1028.6
20260503051117 13 87 3.2 3.2 0.00 0.00 0.00 73 1028.7
20260503050614 13 69 3.2 3.2 0.00 0.00 0.00 72 1028.5
20260503050110 13 78 3.2 3.2 0.00 0.00 0.00 72 1028.3
20260503045608 13 66 3.2 3.2 0.00 0.00 0.00 69 1028.6
20260503045105 13 63 3.2 3.2 0.00 0.00 0.00 71 1028.5
20260503044601 14 73 1.6 3.2 0.00 0.00 0.00 69 1028.7
20260503044059 14 73 1.6 3.2 0.00 0.00 0.00 67 1028.4
20260503043555 14 82 1.6 3.2 0.00 0.00 0.00 68 1028.3
20260503043052 14 85 3.2 3.2 0.00 0.00 0.00 66 1028.3
20260503042549 15 110 0.0 1.6 0.00 0.00 0.00 65 1028.2
20260503042045 15 82 0.0 3.2 0.00 0.00 0.00 66 1028.3
20260503041542 15 94 1.6 3.2 0.00 0.00 0.00 67 1028.2
20260503041040 15 95 0.0 3.2 0.00 0.00 0.00 65 1028.2
20260503040537 15 112 1.6 3.2 0.00 0.00 0.00 65 1028.2
20260503040034 15 112 1.6 1.6 0.00 0.00 0.00 63 1027.9
20260503035531 15 77 3.2 3.2 0.00 0.00 0.00 63 1027.9
20260503035029 15 84 1.6 3.2 0.00 0.00 0.00 64 1027.9
20260503034525 16 108 1.6 3.2 0.00 0.00 0.00 64 1027.6
20260503034022 16 63 3.2 3.2 0.00 0.00 0.00 62 1027.8
20260503033519 16 333 0.0 0.0 0.00 0.00 0.00 59 1027.7
20260503033018 16 72 1.6 1.6 0.00 0.00 0.00 60 1027.6
20260503032516 16 100 3.2 3.2 0.00 0.00 0.00 59 1027.5
20260503032014 17 45 3.2 3.2 0.00 0.00 0.00 58 1027.5
20260503031511 17 9 1.6 3.2 0.00 0.00 0.00 57 1027.3
20260503031008 17 89 0.0 3.2 0.00 0.00 0.00 56 1027.3
20260503030504 18 49 1.6 3.2 0.00 0.00 0.00 54 1027.3
20260503030001 18 54 0.0 3.2 0.00 0.00 0.00 53 1027.2
20260503025458 18 29 0.0 3.2 0.00 0.00 0.00 53 1027.2
20260503024956 18 35 0.0 3.2 0.00 0.00 0.00 53 1027.2
20260503024451 19 109 3.2 3.2 0.00 0.00 0.00 50 1027.2
20260503023949 19 38 1.6 3.2 0.00 0.00 0.00 50 1027.4
20260503023445 20 177 3.2 3.2 0.00 0.00 0.00 49 1027.1
20260503022942 20 30 3.2 4.8 0.00 0.00 0.00 47 1027.2
20260503022437 20 109 3.2 4.8 0.00 0.00 0.00 46 1027.3
20260503021934 20 121 3.2 8.0 0.00 0.00 0.00 47 1027.3
20260503021430 20 23 6.4 6.4 0.00 0.00 0.00 46 1026.8
20260503020928 20 31 3.2 14.5 0.00 0.00 0.00 45 1027.4
20260503020425 20 82 4.8 9.7 0.00 0.00 0.00 44 1027.1
20260503015921 21 75 0.0 8.0 0.00 0.00 0.00 45 1027.2
20260503015418 21 83 3.2 8.0 0.00 0.00 0.00 43 1027.4
20260503014914 22 101 3.2 6.4 0.00 0.00 0.00 44 1027.5
20260503014412 22 268 3.2 6.4 0.00 0.00 0.00 42 1027.4
20260503013910 22 263 3.2 6.4 0.00 0.00 0.00 45 1027.3
20260503013406 22 12 9.7 11.3 0.00 0.00 0.00 43 1027.2
20260503012903 22 67 3.2 9.7 0.00 0.00 0.00 44 1027.3
20260503012401 23 8 3.2 6.4 0.00 0.00 0.00 47 1027.4
20260503011857 23 78 0.0 6.4 0.00 0.00 0.00 47 1027.5
20260503011355 22 22 8.0 12.9 0.00 0.00 0.00 48 1027.5
20260503010851 23 4 4.8 9.7 0.00 0.00 0.00 47 1027.4
20260503010348 23 245 4.8 8.0 0.00 0.00 0.00 47 1027.3
20260503005845 23 11 14.5 14.5 0.00 0.00 0.00 47 1027.3
20260503005343 23 356 6.4 11.3 0.00 0.00 0.00 47 1027.4
20260503004838 23 257 1.6 8.0 0.00 0.00 0.00 49 1027.2
20260503004336 23 324 3.2 9.7 0.00 0.00 0.00 50 1027.4
20260503003833 23 75 3.2 14.5 0.00 0.00 0.00 50 1027.5
20260503003330 23 7 6.4 8.0 0.00 0.00 0.00 50 1027.4
20260503002827 23 14 3.2 9.7 0.00 0.00 0.00 50 1027.5
20260503002324 23 16 6.4 16.1 0.00 0.00 0.00 52 1027.4
20260503001820 24 355 11.3 16.1 0.00 0.00 0.00 50 1027.4
20260503001317 23 321 1.6 9.7 0.00 0.00 0.00 51 1027.6
20260503000815 23 204 3.2 8.0 0.00 0.00 0.00 52 1027.6
20260503000312 24 246 4.8 8.0 0.00 0.00 0.00 51 1027.4
20260502235809 23 26 3.2 8.0 0.00 0.00 0.00 53 1027.7
20260502235306 23 198 4.8 9.7 0.00 0.00 0.00 52 1027.6
20260502234802 23 40 9.7 14.5 0.00 0.00 0.00 52 1027.9
20260502234259 23 344 0.0 11.3 0.00 0.00 0.00 52 1027.8
20260502233755 24 190 4.8 8.0 0.00 0.00 0.00 53 1028.0
20260502233253 23 245 4.8 9.7 0.00 0.00 0.00 53 1028.0
20260502232749 23 331 3.2 12.9 0.00 0.00 0.00 51 1028.0
20260502232246 23 356 9.7 16.1 0.00 0.00 0.00 51 1028.0
20260502231742 23 255 4.8 9.7 0.00 0.00 0.00 55 1028.0
20260502231240 23 36 14.5 17.7 0.00 0.00 0.00 54 1028.1
20260502230738 23 221 9.7 14.5 0.00 0.00 0.00 54 1028.1
20260502230236 23 339 4.8 9.7 0.00 0.00 0.00 54 1028.3
20260502225732 23 5 6.4 16.1 0.00 0.00 0.00 54 1028.2
20260502225230 22 20 9.7 9.7 0.00 0.00 0.00 55 1028.6
20260502224726 22 245 8.0 9.7 0.00 0.00 0.00 55 1028.6
20260502224222 22 30 6.4 19.3 0.00 0.00 0.00 56 1028.6
20260502223720 23 243 9.7 11.3 0.00 0.00 0.00 54 1028.6
20260502223218 22 299 6.4 14.5 0.00 0.00 0.00 56 1028.5
20260502222716 23 253 6.4 9.7 0.00 0.00 0.00 54 1028.7
20260502222212 23 264 3.2 11.3 0.00 0.00 0.00 54 1028.9
20260502221708 23 353 6.4 9.7 0.00 0.00 0.00 55 1028.8
20260502221205 22 309 0.0 14.5 0.00 0.00 0.00 55 1028.9
20260502220701 22 201 4.8 12.9 0.00 0.00 0.00 57 1028.9
20260502220157 22 202 11.3 14.5 0.00 0.00 0.00 57 1029.1
20260502215654 22 201 3.2 6.4 0.00 0.00 0.00 56 1028.9
20260502215151 22 244 6.4 8.0 0.00 0.00 0.00 59 1029.0
20260502214649 22 300 11.3 11.3 0.00 0.00 0.00 59 1029.4
20260502214146 22 156 1.6 8.0 0.00 0.00 0.00 59 1029.1
20260502213643 21 333 3.2 9.7 0.00 0.00 0.00 60 1029.2
20260502213140 21 210 11.3 14.5 0.00 0.00 0.00 58 1029.4
20260502212639 21 21 8.0 11.3 0.00 0.00 0.00 59 1029.5
20260502212137 22 350 6.4 11.3 0.00 0.00 0.00 58 1029.4
20260502211632 21 359 4.8 6.4 0.00 0.00 0.00 62 1029.4
20260502211129 21 253 3.2 8.0 0.00 0.00 0.00 62 1029.3
20260502210627 21 209 0.0 4.8 0.00 0.00 0.00 61 1029.6
20260502210124 21 332 4.8 9.7 0.00 0.00 0.00 60 1029.8
20260502205620 20 82 3.2 8.0 0.00 0.00 0.00 67 1029.6
20260502205117 20 167 9.7 14.5 0.00 0.00 0.00 62 1029.5
20260502204614 21 343 4.8 11.3 0.00 0.00 0.00 63 1029.5
20260502204112 21 235 8.0 9.7 0.00 0.00 0.00 61 1029.4
20260502203609 21 205 3.2 9.7 0.00 0.00 0.00 62 1029.5
20260502203106 21 322 4.8 8.0 0.00 0.00 0.00 63 1029.8
20260502202601 20 218 3.2 14.5 0.00 0.00 0.00 64 1029.7
20260502202100 21 207 4.8 8.0 0.00 0.00 0.00 62 1030.1
20260502201555 21 225 3.2 8.0 0.00 0.00 0.00 62 1030.0
20260502201052 20 229 4.8 8.0 0.00 0.00 0.00 64 1030.0
20260502200548 21 194 3.2 9.7 0.00 0.00 0.00 64 1030.1
20260502200046 20 14 4.8 11.3 0.00 0.00 0.00 63 1030.2
20260502195543 20 230 6.4 9.7 0.00 0.00 0.00 64 1030.2
20260502195039 20 311 0.0 4.8 0.00 0.00 0.00 64 1030.3